OK1KKY-18 Weather Reports


time (UTC)temp
F
wind
direction
speed
knots
gust
knots
rain 1hr
in
rain 24hr
in
rain mn
in
humidity
%
barometer
mb
20260504213559 56 0.0 0.0 0.00 0.00 0.00 65 1013.4
20260504212558 56 0.0 0.0 0.00 0.00 0.00 66 1013.5
20260504211559 56 0.0 0.0 0.00 0.00 0.00 64 1013.5
20260504210559 56 0.0 0.0 0.00 0.00 0.00 64 1013.6
20260504205559 56 0.0 0.0 0.00 0.00 0.00 65 1013.7
20260504204559 56 0.0 0.0 0.00 0.00 0.00 65 1013.6
20260504203559 57 0.0 0.0 0.00 0.00 0.00 64 1013.6
20260504202559 57 0.0 0.0 0.00 0.00 0.00 64 1013.7
20260504200559 57 0.0 0.0 0.00 0.00 0.00 65 1013.8
20260504195559 57 0.0 0.0 0.00 0.00 0.00 65 1013.7
20260504194559 57 0.0 0.0 0.00 0.00 0.00 64 1013.7
20260504193559 57 0.0 0.0 0.00 0.00 0.00 66 1013.7
20260504192559 57 0.0 0.0 0.00 0.00 0.00 65 1013.7
20260504191601 57 0.0 0.0 0.00 0.00 0.00 64 1013.6
20260504190559 58 0.0 0.0 0.00 0.00 0.00 63 1013.6
20260504184559 57 0.0 0.0 0.00 0.00 0.00 65 1013.6
20260504183559 57 0.0 0.0 0.00 0.00 0.00 64 1013.5
20260504182559 58 0.0 0.0 0.00 0.00 0.00 64 1013.5
20260504181559 58 0.0 0.0 0.00 0.00 0.00 63 1013.6
20260504180559 59 0.0 0.0 0.00 0.00 0.00 63 1013.5
20260504175559 60 0.0 0.0 0.00 0.00 0.00 60 1013.4
20260504174559 61 0.0 0.0 0.00 0.00 0.00 58 1013.4
20260504173602 63 0.0 0.0 0.00 0.00 0.00 56 1013.3
20260504172559 64 0.0 0.0 0.00 0.00 0.00 55 1013.2
20260504171559 65 0.0 0.0 0.00 0.00 0.00 53 1013.1
20260504170559 67 0.0 0.0 0.00 0.00 0.00 51 1013.1
20260504150557 72 0.0 0.0 0.00 0.00 0.00 38 1013.3
20260504140557 75 0.0 0.0 0.00 0.00 0.00 32 1013.5
20260504130557 73 0.0 0.0 0.00 0.00 0.00 35 1013.9
20260504110557 68 0.0 0.0 0.00 0.00 0.00 40 1014.8
20260504100557 65 0.0 0.0 0.00 0.00 0.00 45 1015.3
20260504081557 63 0.0 0.0 0.00 0.00 0.00 43 1015.6
20260504080557 62 0.0 0.0 0.00 0.00 0.00 45 1015.3
20260504050557 48 0.0 0.0 0.00 0.00 0.00 68 1015.5
20260504045557 47 0.0 0.0 0.00 0.00 0.00 69 1015.6
20260504044557 47 0.0 0.0 0.00 0.00 0.00 69 1015.6
20260504043557 47 0.0 0.0 0.00 0.00 0.00 71 1015.7
20260504042557 46 0.0 0.0 0.00 0.00 0.00 71 1015.7
20260504041557 46 0.0 0.0 0.00 0.00 0.00 71 1015.8
20260504040557 45 0.0 0.0 0.00 0.00 0.00 72 1015.7
20260504035557 45 0.0 0.0 0.00 0.00 0.00 73 1015.7
20260504034557 45 0.0 0.0 0.00 0.00 0.00 73 1015.8
20260504033557 45 0.0 0.0 0.00 0.00 0.00 73 1015.7
20260504032559 45 0.0 0.0 0.00 0.00 0.00 73 1015.6
20260504031601 45 0.0 0.0 0.00 0.00 0.00 72 1015.6
20260504030556 45 0.0 0.0 0.00 0.00 0.00 72 1015.6
20260504025555 45 0.0 0.0 0.00 0.00 0.00 72 1015.6
20260504024556 46 0.0 0.0 0.00 0.00 0.00 71 1015.7
20260504023556 46 0.0 0.0 0.00 0.00 0.00 71 1015.6
20260504022556 46 0.0 0.0 0.00 0.00 0.00 71 1015.6
20260504021556 46 0.0 0.0 0.00 0.00 0.00 71 1015.6
20260504020556 46 0.0 0.0 0.00 0.00 0.00 71 1015.6
20260504014556 46 0.0 0.0 0.00 0.00 0.00 70 1015.5
20260504013555 46 0.0 0.0 0.00 0.00 0.00 70 1015.4
20260504012556 47 0.0 0.0 0.00 0.00 0.00 70 1015.5
20260504011555 47 0.0 0.0 0.00 0.00 0.00 69 1015.5
20260504010556 47 0.0 0.0 0.00 0.00 0.00 69 1015.6
20260504005556 47 0.0 0.0 0.00 0.00 0.00 69 1015.6
20260504004556 48 0.0 0.0 0.00 0.00 0.00 68 1015.6
20260504003556 48 0.0 0.0 0.00 0.00 0.00 68 1015.6
20260504002556 48 0.0 0.0 0.00 0.00 0.00 67 1015.7
20260504001556 48 0.0 0.0 0.00 0.00 0.00 67 1015.6
20260504000556 48 0.0 0.0 0.00 0.00 0.00 66 1015.7
20260503235556 48 0.0 0.0 0.00 0.00 0.00 67 1015.8
20260503234556 49 0.0 0.0 0.00 0.00 0.00 66 1015.8
20260503233556 49 0.0 0.0 0.00 0.00 0.00 66 1015.7
20260503232556 49 0.0 0.0 0.00 0.00 0.00 66 1015.8
20260503231556 49 0.0 0.0 0.00 0.00 0.00 66 1016.0
20260503230556 49 0.0 0.0 0.00 0.00 0.00 66 1016.0
20260503225556 49 0.0 0.0 0.00 0.00 0.00 65 1016.0
20260503224556 49 0.0 0.0 0.00 0.00 0.00 65 1016.0
20260503223556 50 0.0 0.0 0.00 0.00 0.00 64 1016.0
20260503222556 50 0.0 0.0 0.00 0.00 0.00 64 1016.0
20260503221556 50 0.0 0.0 0.00 0.00 0.00 63 1016.0
20260503220556 50 0.0 0.0 0.00 0.00 0.00 63 1016.0
20260503215556 50 0.0 0.0 0.00 0.00 0.00 62 1016.0